#datetime,building,power
2022-10-25T00:00:00,pth,14.40
2022-10-25T00:01:00,pth,7.20
2022-10-25T00:03:00,pth,14.40
2022-10-25T00:04:00,pth,7.20
2022-10-25T00:06:00,pth,14.40
2022-10-25T00:07:00,pth,2.40
2022-10-25T00:09:00,pth,10.80
2022-10-25T00:11:00,pth,14.40
2022-10-25T00:12:00,pth,7.20
2022-10-25T00:14:00,pth,14.40
2022-10-25T00:16:00,pth,13.20
2022-10-25T00:18:00,pth,3.60
2022-10-25T00:19:00,pth,2.40
2022-10-25T00:21:00,pth,2.40
2022-10-25T00:23:00,pth,3.60
2022-10-25T00:25:00,pth,2.40
2022-10-25T00:27:00,pth,2.40
2022-10-25T00:29:00,pth,3.60
2022-10-25T00:31:00,pth,2.40
2022-10-25T00:33:00,pth,2.40
2022-10-25T00:35:00,pth,2.40
2022-10-25T00:36:00,pth,1.20
2022-10-25T00:38:00,pth,2.40
2022-10-25T00:40:00,pth,2.40
2022-10-25T00:42:00,pth,2.40
2022-10-25T00:44:00,pth,2.40
2022-10-25T00:46:00,pth,2.40
2022-10-25T00:48:00,pth,3.60
2022-10-25T00:49:00,pth,1.20
2022-10-25T00:50:00,pth,1.20
2022-10-25T00:52:00,pth,2.40
2022-10-25T00:55:00,pth,2.40
2022-10-25T00:56:00,pth,1.20
2022-10-25T00:58:00,pth,2.40
2022-10-25T01:00:00,pth,2.40
2022-10-25T01:02:00,pth,2.40
2022-10-25T01:03:00,pth,1.20
2022-10-25T01:05:00,pth,3.60
2022-10-25T01:07:00,pth,2.40
2022-10-25T01:09:00,pth,2.40
2022-10-25T01:12:00,pth,2.40
2022-10-25T01:14:00,pth,2.40
2022-10-25T01:16:00,pth,2.40
2022-10-25T01:18:00,pth,2.40
2022-10-25T01:20:00,pth,2.40
2022-10-25T01:21:00,pth,1.20
2022-10-25T01:23:00,pth,2.40
2022-10-25T01:25:00,pth,1.20
2022-10-25T01:27:00,pth,2.40
2022-10-25T01:29:00,pth,2.40
2022-10-25T01:31:00,pth,2.40
2022-10-25T01:33:00,pth,2.40
2022-10-25T01:35:00,pth,3.60
2022-10-25T01:37:00,pth,2.40
2022-10-25T01:38:00,pth,1.20
2022-10-25T01:40:00,pth,2.40
2022-10-25T01:42:00,pth,1.20
2022-10-25T01:43:00,pth,1.20
2022-10-25T01:45:00,pth,2.40
2022-10-25T01:47:00,pth,2.40
2022-10-25T01:48:00,pth,1.20
2022-10-25T01:50:00,pth,2.40
2022-10-25T01:51:00,pth,1.20
2022-10-25T01:52:00,pth,1.20
2022-10-25T01:54:00,pth,1.20
2022-10-25T01:56:00,pth,2.40
2022-10-25T01:58:00,pth,2.40
2022-10-25T02:00:00,pth,2.40
2022-10-25T02:02:00,pth,2.40
2022-10-25T02:03:00,pth,1.20
2022-10-25T02:05:00,pth,2.40
2022-10-25T02:06:00,pth,2.40
2022-10-25T02:07:00,pth,2.40
2022-10-25T02:08:00,pth,1.20
2022-10-25T02:09:00,pth,1.20
2022-10-25T02:10:00,pth,1.20
2022-10-25T02:12:00,pth,3.60
2022-10-25T02:14:00,pth,2.40
2022-10-25T02:15:00,pth,1.20
2022-10-25T02:17:00,pth,2.40
2022-10-25T02:18:00,pth,1.20
2022-10-25T02:20:00,pth,2.40
2022-10-25T02:21:00,pth,1.20
2022-10-25T02:23:00,pth,2.40
2022-10-25T02:24:00,pth,1.20
2022-10-25T02:25:00,pth,1.20
2022-10-25T02:27:00,pth,3.60
2022-10-25T02:28:00,pth,1.20
2022-10-25T02:29:00,pth,1.20
2022-10-25T02:31:00,pth,2.40
2022-10-25T02:33:00,pth,2.40
2022-10-25T02:35:00,pth,2.40
2022-10-25T02:36:00,pth,1.20
2022-10-25T02:38:00,pth,2.40
2022-10-25T02:39:00,pth,1.20
2022-10-25T02:41:00,pth,2.40
2022-10-25T02:43:00,pth,2.40
2022-10-25T02:45:00,pth,2.40
2022-10-25T02:47:00,pth,2.40
2022-10-25T02:49:00,pth,2.40
2022-10-25T02:51:00,pth,2.40
2022-10-25T02:53:00,pth,1.20
2022-10-25T02:55:00,pth,2.40
2022-10-25T02:57:00,pth,2.40
2022-10-25T02:59:00,pth,2.40
2022-10-25T03:01:00,pth,1.20
2022-10-25T03:03:00,pth,2.40
2022-10-25T03:05:00,pth,2.40
2022-10-25T03:07:00,pth,2.40
2022-10-25T03:09:00,pth,2.40
2022-10-25T03:11:00,pth,2.40
2022-10-25T03:13:00,pth,2.40
2022-10-25T03:15:00,pth,2.40
2022-10-25T03:16:00,pth,1.20
2022-10-25T03:18:00,pth,2.40
2022-10-25T03:19:00,pth,1.20
2022-10-25T03:21:00,pth,1.20
2022-10-25T03:23:00,pth,2.40
2022-10-25T03:24:00,pth,1.20
2022-10-25T03:26:00,pth,2.40
2022-10-25T03:28:00,pth,2.40
2022-10-25T03:29:00,pth,1.20
2022-10-25T03:31:00,pth,2.40
2022-10-25T03:33:00,pth,2.40
2022-10-25T03:35:00,pth,2.40
2022-10-25T03:36:00,pth,1.20
2022-10-25T03:38:00,pth,1.20
2022-10-25T03:40:00,pth,2.40
2022-10-25T03:42:00,pth,2.40
2022-10-25T03:43:00,pth,1.20
2022-10-25T03:45:00,pth,1.20
2022-10-25T03:47:00,pth,2.40
2022-10-25T03:49:00,pth,3.60
2022-10-25T03:50:00,pth,1.20
2022-10-25T03:52:00,pth,2.40
2022-10-25T03:54:00,pth,1.20
2022-10-25T03:56:00,pth,2.40
2022-10-25T03:58:00,pth,2.40
2022-10-25T04:00:00,pth,2.40
2022-10-25T04:02:00,pth,2.40
2022-10-25T04:04:00,pth,2.40
2022-10-25T04:05:00,pth,1.20
2022-10-25T04:07:00,pth,1.20
2022-10-25T04:08:00,pth,1.20
2022-10-25T04:10:00,pth,2.40
2022-10-25T04:11:00,pth,1.20
2022-10-25T04:13:00,pth,2.40
2022-10-25T04:15:00,pth,2.40
2022-10-25T04:17:00,pth,2.40
2022-10-25T04:18:00,pth,1.20
2022-10-25T04:20:00,pth,2.40
2022-10-25T04:21:00,pth,1.20
2022-10-25T04:23:00,pth,2.40
2022-10-25T04:25:00,pth,2.40
2022-10-25T04:27:00,pth,1.20
2022-10-25T04:29:00,pth,2.40
2022-10-25T04:30:00,pth,1.20
2022-10-25T04:32:00,pth,3.60
2022-10-25T04:34:00,pth,2.40
2022-10-25T04:36:00,pth,2.40
2022-10-25T04:37:00,pth,1.20
2022-10-25T04:39:00,pth,2.40
2022-10-25T04:41:00,pth,2.40
2022-10-25T04:43:00,pth,2.40
2022-10-25T04:45:00,pth,2.40
2022-10-25T04:47:00,pth,2.40
2022-10-25T04:49:00,pth,2.40
2022-10-25T04:51:00,pth,2.40
2022-10-25T04:53:00,pth,3.60
2022-10-25T04:55:00,pth,1.20
2022-10-25T04:57:00,pth,2.40
2022-10-25T04:59:00,pth,2.40
2022-10-25T05:01:00,pth,2.40
2022-10-25T05:02:00,pth,1.20
2022-10-25T05:03:00,pth,1.20
2022-10-25T05:05:00,pth,2.40
2022-10-25T05:07:00,pth,2.40
2022-10-25T05:09:00,pth,2.40
2022-10-25T05:11:00,pth,2.40
2022-10-25T05:13:00,pth,1.20
2022-10-25T05:14:00,pth,1.20
2022-10-25T05:16:00,pth,2.40
2022-10-25T05:18:00,pth,2.40
2022-10-25T05:20:00,pth,1.20
2022-10-25T05:22:00,pth,2.40
2022-10-25T05:23:00,pth,1.20
2022-10-25T05:25:00,pth,2.40
2022-10-25T05:27:00,pth,3.60
2022-10-25T05:29:00,pth,1.20
2022-10-25T05:30:00,pth,1.20
2022-10-25T05:32:00,pth,2.40
2022-10-25T05:33:00,pth,1.20
2022-10-25T05:35:00,pth,2.40
2022-10-25T05:37:00,pth,1.20
2022-10-25T05:39:00,pth,2.40
2022-10-25T05:41:00,pth,2.40
2022-10-25T05:44:00,pth,2.40
2022-10-25T05:45:00,pth,1.20
2022-10-25T05:47:00,pth,2.40
2022-10-25T05:48:00,pth,1.20
2022-10-25T05:50:00,pth,2.40
2022-10-25T05:52:00,pth,2.40
2022-10-25T05:54:00,pth,1.20
2022-10-25T05:56:00,pth,2.40
2022-10-25T05:57:00,pth,1.20
2022-10-25T05:58:00,pth,1.20
2022-10-25T05:59:00,pth,1.20
2022-10-25T06:01:00,pth,2.40
2022-10-25T06:02:00,pth,1.20
2022-10-25T06:03:00,pth,1.20
2022-10-25T06:05:00,pth,2.40
2022-10-25T06:06:00,pth,1.20
2022-10-25T06:07:00,pth,1.20
2022-10-25T06:09:00,pth,2.40
2022-10-25T06:10:00,pth,1.20
2022-10-25T06:12:00,pth,2.40
2022-10-25T06:14:00,pth,2.40
2022-10-25T06:16:00,pth,3.60
2022-10-25T06:17:00,pth,1.20
2022-10-25T06:19:00,pth,4.80
2022-10-25T06:21:00,pth,3.60
2022-10-25T06:23:00,pth,3.60
2022-10-25T06:24:00,pth,1.20
2022-10-25T06:26:00,pth,4.80
2022-10-25T06:28:00,pth,3.60
2022-10-25T06:30:00,pth,3.60
2022-10-25T06:32:00,pth,3.60
2022-10-25T06:33:00,pth,2.40
2022-10-25T06:35:00,pth,3.60
2022-10-25T06:37:00,pth,2.40
2022-10-25T06:39:00,pth,3.60
2022-10-25T06:41:00,pth,3.60
2022-10-25T06:43:00,pth,3.60
2022-10-25T06:44:00,pth,1.20
2022-10-25T06:46:00,pth,2.40
2022-10-25T06:48:00,pth,2.40
2022-10-25T06:50:00,pth,2.40
2022-10-25T06:52:00,pth,1.20
2022-10-25T06:54:00,pth,2.40
2022-10-25T06:55:00,pth,1.20
2022-10-25T06:57:00,pth,2.40
2022-10-25T06:59:00,pth,2.40
2022-10-25T07:01:00,pth,2.40
2022-10-25T07:02:00,pth,1.20
2022-10-25T07:04:00,pth,2.40
2022-10-25T07:06:00,pth,2.40
2022-10-25T07:08:00,pth,2.40
2022-10-25T07:09:00,pth,1.20
2022-10-25T07:11:00,pth,2.40
2022-10-25T07:13:00,pth,2.40
2022-10-25T07:15:00,pth,2.40
2022-10-25T07:16:00,pth,1.20
2022-10-25T07:18:00,pth,2.40
2022-10-25T07:19:00,pth,1.20
2022-10-25T07:21:00,pth,3.60
2022-10-25T07:23:00,pth,2.40
2022-10-25T07:25:00,pth,2.40
2022-10-25T07:26:00,pth,1.20
2022-10-25T07:29:00,pth,2.40
2022-10-25T07:31:00,pth,2.40
2022-10-25T07:32:00,pth,1.20
2022-10-25T07:34:00,pth,1.20
2022-10-25T07:35:00,pth,1.20
2022-10-25T07:37:00,pth,2.40
2022-10-25T07:38:00,pth,1.20
2022-10-25T07:40:00,pth,1.20
2022-10-25T07:41:00,pth,1.20
2022-10-25T07:43:00,pth,2.40
2022-10-25T07:45:00,pth,3.60
2022-10-25T07:47:00,pth,1.20
2022-10-25T07:49:00,pth,2.40
2022-10-25T07:51:00,pth,2.40
2022-10-25T07:53:00,pth,2.40
2022-10-25T07:55:00,pth,2.40
2022-10-25T07:56:00,pth,1.20
2022-10-25T07:58:00,pth,2.40
2022-10-25T08:00:00,pth,1.20
2022-10-25T08:02:00,pth,2.40
2022-10-25T08:04:00,pth,2.40
2022-10-25T08:06:00,pth,1.20
2022-10-25T08:08:00,pth,2.40
2022-10-25T08:10:00,pth,2.40
2022-10-25T08:11:00,pth,1.20
2022-10-25T08:13:00,pth,2.40
2022-10-25T08:15:00,pth,2.40
2022-10-25T08:17:00,pth,2.40
2022-10-25T08:18:00,pth,2.40
2022-10-25T08:19:00,pth,2.40
2022-10-25T08:21:00,pth,1.20
2022-10-25T08:22:00,pth,1.20
2022-10-25T08:24:00,pth,1.20
2022-10-25T08:26:00,pth,1.20
2022-10-25T08:27:00,pth,1.20
2022-10-25T08:29:00,pth,2.40
2022-10-25T08:30:00,pth,1.20
2022-10-25T08:32:00,pth,2.40
2022-10-25T08:34:00,pth,1.20
2022-10-25T08:35:00,pth,1.20
2022-10-25T08:37:00,pth,2.40
2022-10-25T08:39:00,pth,2.40
2022-10-25T08:41:00,pth,2.40
2022-10-25T08:43:00,pth,2.40
2022-10-25T08:44:00,pth,1.20
2022-10-25T08:46:00,pth,1.20
2022-10-25T08:48:00,pth,2.40
2022-10-25T08:49:00,pth,1.20
2022-10-25T08:51:00,pth,1.20
2022-10-25T08:53:00,pth,2.40
2022-10-25T08:54:00,pth,1.20
2022-10-25T08:56:00,pth,2.40
2022-10-25T08:58:00,pth,1.20
2022-10-25T08:59:00,pth,1.20
2022-10-25T09:01:00,pth,1.20
2022-10-25T09:03:00,pth,2.40
2022-10-25T09:06:00,pth,1.20
2022-10-25T09:08:00,pth,1.20
2022-10-25T09:10:00,pth,2.40
2022-10-25T09:12:00,pth,1.20
2022-10-25T09:14:00,pth,1.20
2022-10-25T09:16:00,pth,1.20
2022-10-25T09:18:00,pth,1.20
2022-10-25T09:20:00,pth,2.40
2022-10-25T09:23:00,pth,2.40
2022-10-25T09:24:00,pth,1.20
2022-10-25T09:26:00,pth,1.20
2022-10-25T09:28:00,pth,2.40
2022-10-25T09:29:00,pth,1.20
2022-10-25T09:32:00,pth,2.40
2022-10-25T09:34:00,pth,1.20
2022-10-25T09:35:00,pth,1.20
2022-10-25T09:37:00,pth,2.40
2022-10-25T09:39:00,pth,1.20
2022-10-25T09:41:00,pth,1.20
2022-10-25T09:43:00,pth,1.20
2022-10-25T09:45:00,pth,2.40
2022-10-25T09:47:00,pth,1.20
2022-10-25T09:49:00,pth,1.20
2022-10-25T09:50:00,pth,1.20
2022-10-25T09:52:00,pth,1.20
2022-10-25T09:53:00,pth,1.20
2022-10-25T09:54:00,pth,2.40
2022-10-25T09:56:00,pth,1.20
2022-10-25T09:58:00,pth,1.20
2022-10-25T10:00:00,pth,1.20
2022-10-25T10:02:00,pth,1.20
2022-10-25T10:04:00,pth,1.20
2022-10-25T10:06:00,pth,2.40
2022-10-25T10:10:00,pth,1.20
2022-10-25T10:12:00,pth,1.20
2022-10-25T10:13:00,pth,1.20
2022-10-25T10:15:00,pth,1.20
2022-10-25T10:17:00,pth,1.20
2022-10-25T10:20:00,pth,1.20
2022-10-25T10:22:00,pth,1.20
2022-10-25T10:24:00,pth,1.20
2022-10-25T10:26:00,pth,1.20
2022-10-25T10:28:00,pth,1.20
2022-10-25T10:31:00,pth,1.20
2022-10-25T10:34:00,pth,1.20
2022-10-25T10:35:00,pth,1.20
2022-10-25T10:37:00,pth,1.20
2022-10-25T10:39:00,pth,2.40
2022-10-25T10:42:00,pth,2.40
2022-10-25T10:44:00,pth,1.20
2022-10-25T10:45:00,pth,1.20
2022-10-25T10:47:00,pth,1.20
2022-10-25T10:49:00,pth,1.20
2022-10-25T10:51:00,pth,2.40
2022-10-25T10:53:00,pth,1.20
2022-10-25T10:55:00,pth,1.20
2022-10-25T10:56:00,pth,1.20
2022-10-25T10:57:00,pth,1.20
2022-10-25T10:59:00,pth,1.20
2022-10-25T11:01:00,pth,2.40
2022-10-25T11:03:00,pth,1.20
2022-10-25T11:05:00,pth,1.20
2022-10-25T11:08:00,pth,1.20
2022-10-25T11:10:00,pth,1.20
2022-10-25T11:11:00,pth,1.20
2022-10-25T11:13:00,pth,1.20
2022-10-25T11:15:00,pth,1.20
2022-10-25T11:18:00,pth,1.20
2022-10-25T11:19:00,pth,1.20
2022-10-25T11:21:00,pth,1.20
2022-10-25T11:23:00,pth,1.20
2022-10-25T11:25:00,pth,1.20
2022-10-25T11:27:00,pth,1.20
2022-10-25T11:29:00,pth,1.20
2022-10-25T11:31:00,pth,2.40
2022-10-25T11:33:00,pth,1.20
2022-10-25T11:35:00,pth,1.20
2022-10-25T11:37:00,pth,1.20
2022-10-25T11:38:00,pth,1.20
2022-10-25T11:40:00,pth,1.20
2022-10-25T11:42:00,pth,2.40
2022-10-25T11:43:00,pth,1.20
2022-10-25T11:45:00,pth,1.20
2022-10-25T11:46:00,pth,1.20
2022-10-25T11:48:00,pth,1.20
2022-10-25T11:49:00,pth,1.20
2022-10-25T11:51:00,pth,1.20
2022-10-25T11:53:00,pth,1.20
2022-10-25T11:55:00,pth,2.40
2022-10-25T11:58:00,pth,1.20
2022-10-25T12:00:00,pth,2.40
2022-10-25T12:02:00,pth,1.20
2022-10-25T12:05:00,pth,2.40
2022-10-25T12:07:00,pth,1.20
2022-10-25T12:09:00,pth,1.20
2022-10-25T12:11:00,pth,2.40
2022-10-25T12:13:00,pth,1.20
2022-10-25T12:16:00,pth,1.20
2022-10-25T12:18:00,pth,1.20
2022-10-25T12:20:00,pth,1.20
2022-10-25T12:22:00,pth,1.20
2022-10-25T12:23:00,pth,1.20
2022-10-25T12:25:00,pth,1.20
2022-10-25T12:27:00,pth,1.20
2022-10-25T12:29:00,pth,1.20
2022-10-25T12:31:00,pth,1.20
2022-10-25T12:33:00,pth,2.40
2022-10-25T12:35:00,pth,1.20
2022-10-25T12:37:00,pth,1.20
2022-10-25T12:40:00,pth,1.20
2022-10-25T12:42:00,pth,1.20
2022-10-25T12:44:00,pth,2.40
2022-10-25T12:46:00,pth,1.20
2022-10-25T12:48:00,pth,1.20
2022-10-25T12:49:00,pth,1.20
2022-10-25T12:51:00,pth,1.20
2022-10-25T12:52:00,pth,1.20
2022-10-25T12:55:00,pth,2.40
2022-10-25T12:58:00,pth,2.40
2022-10-25T13:00:00,pth,1.20
2022-10-25T13:02:00,pth,1.20
2022-10-25T13:04:00,pth,2.40
2022-10-25T13:06:00,pth,1.20
2022-10-25T13:08:00,pth,1.20
2022-10-25T13:10:00,pth,1.20
2022-10-25T13:11:00,pth,1.20
2022-10-25T13:13:00,pth,1.20
2022-10-25T13:14:00,pth,1.20
2022-10-25T13:16:00,pth,1.20
2022-10-25T13:17:00,pth,1.20
2022-10-25T13:19:00,pth,1.20
2022-10-25T13:20:00,pth,1.20
2022-10-25T13:22:00,pth,1.20
2022-10-25T13:24:00,pth,1.20
2022-10-25T13:26:00,pth,2.40
2022-10-25T13:28:00,pth,1.20
2022-10-25T13:30:00,pth,1.20
2022-10-25T13:32:00,pth,1.20
2022-10-25T13:34:00,pth,2.40
2022-10-25T13:36:00,pth,1.20
2022-10-25T13:38:00,pth,1.20
2022-10-25T13:40:00,pth,2.40
2022-10-25T13:42:00,pth,1.20
2022-10-25T13:43:00,pth,1.20
2022-10-25T13:45:00,pth,1.20
2022-10-25T13:47:00,pth,1.20
2022-10-25T13:49:00,pth,1.20
2022-10-25T13:50:00,pth,1.20
2022-10-25T13:52:00,pth,1.20
2022-10-25T13:54:00,pth,1.20
2022-10-25T13:56:00,pth,1.20
2022-10-25T13:59:00,pth,1.20
2022-10-25T14:01:00,pth,1.20
2022-10-25T14:02:00,pth,1.20
2022-10-25T14:04:00,pth,1.20
2022-10-25T14:06:00,pth,2.40
2022-10-25T14:08:00,pth,1.20
2022-10-25T14:09:00,pth,1.20
2022-10-25T14:11:00,pth,1.20
2022-10-25T14:12:00,pth,1.20
2022-10-25T14:14:00,pth,2.40
2022-10-25T14:17:00,pth,2.40
2022-10-25T14:18:00,pth,1.20
2022-10-25T14:20:00,pth,1.20
2022-10-25T14:22:00,pth,1.20
2022-10-25T14:24:00,pth,1.20
2022-10-25T14:25:00,pth,1.20
2022-10-25T14:27:00,pth,1.20
2022-10-25T14:28:00,pth,1.20
2022-10-25T14:30:00,pth,1.20
2022-10-25T14:32:00,pth,1.20
2022-10-25T14:34:00,pth,1.20
2022-10-25T14:35:00,pth,1.20
2022-10-25T14:38:00,pth,1.20
2022-10-25T14:40:00,pth,1.20
2022-10-25T14:42:00,pth,2.40
2022-10-25T14:44:00,pth,2.40
2022-10-25T14:45:00,pth,1.20
2022-10-25T14:47:00,pth,1.20
2022-10-25T14:49:00,pth,2.40
2022-10-25T14:51:00,pth,1.20
2022-10-25T14:52:00,pth,1.20
2022-10-25T14:54:00,pth,2.40
2022-10-25T14:55:00,pth,1.20
2022-10-25T14:56:00,pth,1.20
2022-10-25T14:58:00,pth,3.60
2022-10-25T15:00:00,pth,2.40
2022-10-25T15:02:00,pth,2.40
2022-10-25T15:04:00,pth,2.40
2022-10-25T15:06:00,pth,2.40
2022-10-25T15:09:00,pth,2.40
2022-10-25T15:12:00,pth,2.40
2022-10-25T15:14:00,pth,2.40
2022-10-25T15:16:00,pth,2.40
2022-10-25T15:18:00,pth,2.40
2022-10-25T15:20:00,pth,1.20
2022-10-25T15:22:00,pth,2.40
2022-10-25T15:25:00,pth,9.60
2022-10-25T15:26:00,pth,6.00
2022-10-25T15:28:00,pth,13.20
2022-10-25T15:30:00,pth,13.20
2022-10-25T15:32:00,pth,13.20
2022-10-25T15:34:00,pth,12.00
2022-10-25T15:35:00,pth,6.00
2022-10-25T15:37:00,pth,13.20
2022-10-25T15:39:00,pth,13.20
2022-10-25T15:41:00,pth,12.00
2022-10-25T15:43:00,pth,13.20
2022-10-25T15:44:00,pth,6.00
2022-10-25T15:46:00,pth,13.20
2022-10-25T15:48:00,pth,13.20
2022-10-25T15:50:00,pth,12.00
2022-10-25T15:52:00,pth,7.20
2022-10-25T15:53:00,pth,6.00
2022-10-25T15:55:00,pth,10.80
2022-10-25T15:57:00,pth,8.40
2022-10-25T15:59:00,pth,8.40
2022-10-25T16:01:00,pth,10.80
2022-10-25T16:03:00,pth,6.00
2022-10-25T16:05:00,pth,13.20
2022-10-25T16:06:00,pth,1.20
2022-10-25T16:08:00,pth,10.80
2022-10-25T16:10:00,pth,6.00
2022-10-25T16:12:00,pth,12.00
2022-10-25T16:14:00,pth,6.00
2022-10-25T16:15:00,pth,7.20
2022-10-25T16:16:00,pth,1.20
2022-10-25T16:18:00,pth,9.60
2022-10-25T16:20:00,pth,6.00
2022-10-25T16:22:00,pth,10.80
2022-10-25T16:24:00,pth,2.40
2022-10-25T16:26:00,pth,1.20
2022-10-25T16:27:00,pth,1.20
2022-10-25T16:29:00,pth,1.20
2022-10-25T16:30:00,pth,1.20
2022-10-25T16:32:00,pth,2.40
2022-10-25T16:34:00,pth,1.20
2022-10-25T16:35:00,pth,1.20
2022-10-25T16:36:00,pth,1.20
2022-10-25T16:38:00,pth,1.20
2022-10-25T16:40:00,pth,2.40
2022-10-25T16:42:00,pth,1.20
2022-10-25T16:44:00,pth,1.20
2022-10-25T16:46:00,pth,2.40
2022-10-25T16:47:00,pth,1.20
2022-10-25T16:49:00,pth,1.20
2022-10-25T16:51:00,pth,2.40
2022-10-25T16:53:00,pth,1.20
2022-10-25T16:54:00,pth,1.20
2022-10-25T16:56:00,pth,1.20
2022-10-25T16:57:00,pth,1.20
2022-10-25T16:59:00,pth,2.40
2022-10-25T17:01:00,pth,1.20
2022-10-25T17:02:00,pth,1.20
2022-10-25T17:03:00,pth,1.20
2022-10-25T17:05:00,pth,1.20
2022-10-25T17:06:00,pth,1.20
2022-10-25T17:08:00,pth,1.20
2022-10-25T17:10:00,pth,2.40
2022-10-25T17:12:00,pth,2.40
2022-10-25T17:15:00,pth,2.40
2022-10-25T17:17:00,pth,2.40
2022-10-25T17:19:00,pth,1.20
2022-10-25T17:20:00,pth,1.20
2022-10-25T17:21:00,pth,1.20
2022-10-25T17:22:00,pth,1.20
2022-10-25T17:24:00,pth,2.40
2022-10-25T17:26:00,pth,1.20
2022-10-25T17:28:00,pth,2.40
2022-10-25T17:30:00,pth,1.20
2022-10-25T17:32:00,pth,1.20
2022-10-25T17:34:00,pth,1.20
2022-10-25T17:36:00,pth,2.40
2022-10-25T17:39:00,pth,1.20
2022-10-25T17:41:00,pth,2.40
2022-10-25T17:44:00,pth,2.40
2022-10-25T17:46:00,pth,1.20
2022-10-25T17:48:00,pth,2.40
2022-10-25T17:49:00,pth,1.20
2022-10-25T17:51:00,pth,1.20
2022-10-25T17:53:00,pth,2.40
2022-10-25T17:55:00,pth,2.40
2022-10-25T17:57:00,pth,2.40
2022-10-25T17:59:00,pth,2.40
2022-10-25T18:00:00,pth,1.20
2022-10-25T18:02:00,pth,1.20
2022-10-25T18:03:00,pth,1.20
2022-10-25T18:05:00,pth,2.40
2022-10-25T18:07:00,pth,3.60
2022-10-25T18:09:00,pth,3.60
2022-10-25T18:10:00,pth,2.40
2022-10-25T18:12:00,pth,2.40
2022-10-25T18:14:00,pth,6.00
2022-10-25T18:16:00,pth,3.60
2022-10-25T18:18:00,pth,3.60
2022-10-25T18:20:00,pth,2.40
2022-10-25T18:23:00,pth,2.40
2022-10-25T18:25:00,pth,2.40
2022-10-25T18:27:00,pth,2.40
2022-10-25T18:29:00,pth,2.40
2022-10-25T18:31:00,pth,2.40
2022-10-25T18:32:00,pth,1.20
2022-10-25T18:34:00,pth,2.40
2022-10-25T18:35:00,pth,1.20
2022-10-25T18:37:00,pth,2.40
2022-10-25T18:39:00,pth,2.40
2022-10-25T18:42:00,pth,2.40
2022-10-25T18:44:00,pth,2.40
2022-10-25T18:45:00,pth,1.20
2022-10-25T18:47:00,pth,2.40
2022-10-25T18:49:00,pth,2.40
2022-10-25T18:51:00,pth,2.40
2022-10-25T18:53:00,pth,2.40
2022-10-25T18:55:00,pth,3.60
2022-10-25T18:56:00,pth,1.20
2022-10-25T18:58:00,pth,2.40
2022-10-25T18:59:00,pth,1.20
2022-10-25T19:01:00,pth,2.40
2022-10-25T19:03:00,pth,2.40
2022-10-25T19:05:00,pth,3.60
2022-10-25T19:07:00,pth,2.40
2022-10-25T19:10:00,pth,2.40
2022-10-25T19:12:00,pth,2.40
2022-10-25T19:14:00,pth,2.40
2022-10-25T19:16:00,pth,2.40
2022-10-25T19:17:00,pth,1.20
2022-10-25T19:19:00,pth,2.40
2022-10-25T19:21:00,pth,2.40
2022-10-25T19:22:00,pth,1.20
2022-10-25T19:25:00,pth,2.40
2022-10-25T19:26:00,pth,1.20
2022-10-25T19:28:00,pth,1.20
2022-10-25T19:30:00,pth,2.40
2022-10-25T19:31:00,pth,1.20
2022-10-25T19:33:00,pth,3.60
2022-10-25T19:35:00,pth,1.20
2022-10-25T19:36:00,pth,1.20
2022-10-25T19:38:00,pth,2.40
2022-10-25T19:40:00,pth,2.40
2022-10-25T19:42:00,pth,2.40
2022-10-25T19:44:00,pth,2.40
2022-10-25T19:46:00,pth,1.20
2022-10-25T19:47:00,pth,1.20
2022-10-25T19:49:00,pth,1.20
2022-10-25T19:50:00,pth,1.20
2022-10-25T19:52:00,pth,2.40
2022-10-25T19:54:00,pth,2.40
2022-10-25T19:56:00,pth,1.20
2022-10-25T19:58:00,pth,2.40
2022-10-25T20:00:00,pth,2.40
2022-10-25T20:02:00,pth,1.20
2022-10-25T20:03:00,pth,1.20
2022-10-25T20:05:00,pth,1.20
2022-10-25T20:07:00,pth,2.40
2022-10-25T20:09:00,pth,2.40
2022-10-25T20:10:00,pth,1.20
2022-10-25T20:12:00,pth,1.20
2022-10-25T20:14:00,pth,2.40
2022-10-25T20:15:00,pth,1.20
2022-10-25T20:16:00,pth,1.20
2022-10-25T20:18:00,pth,2.40
2022-10-25T20:20:00,pth,2.40
2022-10-25T20:22:00,pth,2.40
2022-10-25T20:23:00,pth,1.20
2022-10-25T20:24:00,pth,1.20
2022-10-25T20:26:00,pth,1.20
2022-10-25T20:28:00,pth,1.20
2022-10-25T20:29:00,pth,1.20
2022-10-25T20:31:00,pth,2.40
2022-10-25T20:32:00,pth,1.20
2022-10-25T20:33:00,pth,1.20
2022-10-25T20:35:00,pth,1.20
2022-10-25T20:37:00,pth,2.40
2022-10-25T20:38:00,pth,1.20
2022-10-25T20:40:00,pth,2.40
2022-10-25T20:42:00,pth,1.20
2022-10-25T20:43:00,pth,1.20
2022-10-25T20:45:00,pth,2.40
2022-10-25T20:47:00,pth,1.20
2022-10-25T20:48:00,pth,1.20
2022-10-25T20:50:00,pth,2.40
2022-10-25T20:52:00,pth,2.40
2022-10-25T20:53:00,pth,1.20
2022-10-25T20:54:00,pth,1.20
2022-10-25T20:56:00,pth,2.40
2022-10-25T20:58:00,pth,2.40
2022-10-25T21:00:00,pth,2.40
2022-10-25T21:02:00,pth,2.40
2022-10-25T21:05:00,pth,2.40
2022-10-25T21:07:00,pth,2.40
2022-10-25T21:09:00,pth,1.20
2022-10-25T21:11:00,pth,2.40
2022-10-25T21:13:00,pth,2.40
2022-10-25T21:15:00,pth,2.40
2022-10-25T21:17:00,pth,2.40
2022-10-25T21:18:00,pth,1.20
2022-10-25T21:20:00,pth,3.60
2022-10-25T21:21:00,pth,1.20
2022-10-25T21:23:00,pth,2.40
2022-10-25T21:24:00,pth,1.20
2022-10-25T21:26:00,pth,2.40
2022-10-25T21:28:00,pth,2.40
2022-10-25T21:30:00,pth,2.40
2022-10-25T21:32:00,pth,2.40
2022-10-25T21:34:00,pth,2.40
2022-10-25T21:36:00,pth,2.40
2022-10-25T21:37:00,pth,1.20
2022-10-25T21:39:00,pth,2.40
2022-10-25T21:41:00,pth,2.40
2022-10-25T21:43:00,pth,2.40
2022-10-25T21:45:00,pth,1.20
2022-10-25T21:46:00,pth,1.20
2022-10-25T21:48:00,pth,2.40
2022-10-25T21:50:00,pth,2.40
2022-10-25T21:51:00,pth,1.20
2022-10-25T21:52:00,pth,1.20
2022-10-25T21:54:00,pth,2.40
2022-10-25T21:56:00,pth,2.40
2022-10-25T21:58:00,pth,1.20
2022-10-25T22:00:00,pth,2.40
2022-10-25T22:02:00,pth,2.40
2022-10-25T22:03:00,pth,1.20
2022-10-25T22:05:00,pth,2.40
2022-10-25T22:07:00,pth,2.40
2022-10-25T22:09:00,pth,1.20
2022-10-25T22:11:00,pth,2.40
2022-10-25T22:13:00,pth,2.40
2022-10-25T22:15:00,pth,2.40
2022-10-25T22:17:00,pth,2.40
2022-10-25T22:19:00,pth,1.20
2022-10-25T22:21:00,pth,2.40
2022-10-25T22:23:00,pth,1.20
2022-10-25T22:25:00,pth,2.40
2022-10-25T22:27:00,pth,2.40
2022-10-25T22:29:00,pth,1.20
2022-10-25T22:31:00,pth,2.40
2022-10-25T22:33:00,pth,2.40
2022-10-25T22:34:00,pth,1.20
2022-10-25T22:36:00,pth,2.40
2022-10-25T22:37:00,pth,1.20
2022-10-25T22:39:00,pth,2.40
2022-10-25T22:41:00,pth,3.60
2022-10-25T22:43:00,pth,2.40
2022-10-25T22:44:00,pth,1.20
2022-10-25T22:46:00,pth,2.40
2022-10-25T22:48:00,pth,3.60
2022-10-25T22:49:00,pth,1.20
2022-10-25T22:50:00,pth,2.40
2022-10-25T22:52:00,pth,2.40
2022-10-25T22:54:00,pth,3.60
2022-10-25T22:55:00,pth,2.40
2022-10-25T22:56:00,pth,2.40
2022-10-25T22:58:00,pth,3.60
2022-10-25T22:59:00,pth,2.40
2022-10-25T23:01:00,pth,3.60
2022-10-25T23:03:00,pth,3.60
2022-10-25T23:05:00,pth,3.60
2022-10-25T23:07:00,pth,2.40
2022-10-25T23:09:00,pth,3.60
2022-10-25T23:11:00,pth,2.40
2022-10-25T23:13:00,pth,3.60
2022-10-25T23:14:00,pth,1.20
2022-10-25T23:16:00,pth,2.40
2022-10-25T23:18:00,pth,2.40
2022-10-25T23:20:00,pth,2.40
2022-10-25T23:21:00,pth,1.20
2022-10-25T23:23:00,pth,2.40
2022-10-25T23:25:00,pth,2.40
2022-10-25T23:27:00,pth,1.20
2022-10-25T23:29:00,pth,2.40
2022-10-25T23:31:00,pth,2.40
2022-10-25T23:33:00,pth,1.20
2022-10-25T23:34:00,pth,7.20
2022-10-25T23:36:00,pth,13.20
2022-10-25T23:38:00,pth,13.20
2022-10-25T23:39:00,pth,7.20
2022-10-25T23:41:00,pth,13.20
2022-10-25T23:43:00,pth,13.20
2022-10-25T23:45:00,pth,12.00
2022-10-25T23:47:00,pth,8.40
2022-10-25T23:49:00,pth,12.00
2022-10-25T23:51:00,pth,9.60
2022-10-25T23:53:00,pth,12.00
2022-10-25T23:54:00,pth,3.60
2022-10-25T23:56:00,pth,14.40
2022-10-25T23:58:00,pth,8.40
